Location: Cabadeur
(42.9563°N, 0.2289°E)
Time: 04:24:12
(UTC+00:00)

Daily predictions for brighter satellites

Satellite Brightness Start Highest point End
(mag) Time Altitude Azimuth Time Altitude Azimuth Time Altitude Azimuth
Cosmos 2369 Rocket 4.4 03:51:56 16° NNE 03:51:56 16° NNE 03:52:58 10° NNE
SJ 16-02 3.8 04:13:36 10° SE 04:16:51 21° E 04:20:06 10° NE
USA 215 4.3 04:13:57 10° ENE 04:19:33 32° NNE 04:20:33 30° N
Cosmos 1634 Rocket 4.2 04:34:54 56° SSW 04:34:54 56° SSW 04:39:43 10° S
ATLAS 5 CENTAUR R/B 2.7 04:41:25 37° ENE 04:41:25 37° ENE 04:44:15 10° NE
Cosmos 1354 Rocket 3.8 04:53:50 77° NW 04:53:50 77° NW 04:59:04 10° NNE
CENTAUR R/B 4.0 04:59:09 23° NNW 04:59:09 23° NNW 05:04:18 10° NNE
DELTA 2 R/B (1) 3.7 04:59:49 54° SW 05:00:41 62° S 05:06:10 10° ESE
SL-19 R/B 4.1 05:00:52 10° SSE 05:06:25 80° WSW 05:09:38 27° NNW
CZ-3 R/B 4.3 04:56:45 10° SW 05:08:22 21° S 05:13:50 10° SE
Cosmos 2180 Rocket 4.3 05:03:11 10° N 05:09:21 84° W 05:15:29 10° S
BREEZE-M DEB (TANK) 4.5 05:06:52 29° WNW 05:13:58 83° NNE 05:18:24 10° ESE
Cosmos 1328 Rocket 4.3 05:16:03 37° SW 05:16:03 37° SW 05:18:54 10° S
MOS 1-B Rocket 3.9 05:13:45 10° S 05:19:46 58° WSW 05:23:08 24° NNW
Alouette 2 Rocket 4.5 05:20:03 12° N 05:23:11 39° ENE 05:26:44 10° SE
Meteor 1-27 Rocket 3.8 05:17:58 10° N 05:23:42 82° E 05:29:30 10° SSE
Meteor 2-6 Rocket 4.4 05:24:13 40° WNW 05:25:01 42° W 05:30:04 10° SSW
BREEZE-M DEB (TANK) 4.0 05:26:09 32° W 05:28:18 48° SSW 05:44:54 10° SE
ADEOS 4.0 05:23:14 10° NNE 05:28:27 65° ESE 05:33:37 10° S
Cosmos 2297 Rocket 3.8 05:24:44 10° N 05:29:44 31° NE 05:34:42 10° ESE
ATLAS 3B R/B 2.5 05:24:17 10° SW 05:30:48 85° WNW 05:37:41 10° NE
Cosmos 1607 4.4 05:26:35 16° NNW 05:31:32 56° NE 05:37:33 10° SE
Cosmos 2369 Rocket 3.8 05:33:46 17° NNW 05:33:46 17° NNW 05:35:58 10° N
Meteor 2-15 Rocket 4.3 05:26:52 10° N 05:32:58 80° W 05:39:01 10° S
Landsat 5 3.5 05:28:32 10° S 05:33:03 80° WSW 05:36:39 15° NNW
Cosmos 1340 Rocket 2.7 05:30:07 10° S 05:34:04 89° W 05:38:07 10° N
Cosmos 773 Rocket 4.1 05:32:06 30° NW 05:34:22 52° WSW 05:39:21 10° S
COSMO-SKYMED 1 2.6 05:30:46 10° S 05:35:01 55° W 05:37:10 27° NNW
Cosmos 1777 Rocket 3.9 05:29:55 10° SSW 05:35:04 60° WNW 05:40:17 10° NNE
SL-27 R/B 3.2 05:36:24 35° SW 05:36:24 35° SW 05:39:06 10° S
CZ-2C R/B 2.7 05:31:35 10° S 05:36:56 58° W 05:41:56 11° NNW
CZ-4B R/B 4.3 05:35:45 10° E 05:37:18 13° ENE 05:38:51 10° NE
Cosmos 1408 Rocket 3.8 05:36:34 10° SSW 05:40:41 43° WNW 05:44:49 10° N
Cosmos 158 Rocket 4.0 05:36:53 12° NNW 05:41:43 81° ENE 05:47:00 10° SSE
SJ-12 4.4 05:38:34 10° N 05:42:24 37° WNW 05:46:13 10° SW
CZ-4B R/B 3.6 05:41:16 10° NNE 05:44:45 49° E 05:48:18 10° S
FAST Rocket 4.0 05:43:44 10° S 05:46:22 87° W 05:49:50 10° N
Lacrosse 5 3.4 05:43:09 10° SSW 05:47:49 37° SE 05:52:30 10° ENE
Meteor 1-31 Rocket 3.2 05:47:22 10° N 05:51:02 39° WNW 05:54:42 10° SW
USA 32 4.1 05:46:47 10° N 05:52:04 83° E 05:57:19 10° S
Envisat 3.4 05:48:10 10° N 05:52:49 38° WNW 05:57:28 10° SW
Cosmos 1743 Rocket 3.5 05:48:35 10° SSW 05:52:54 62° W 05:57:14 10° N
SJ 16-02 1.8 05:51:07 10° SW 05:55:09 36° WNW 05:59:13 10° N
Cosmos 1656 4.4 05:52:51 10° S 05:58:07 54° ESE 06:03:26 10° NNE
CZ-2C R/B 3.0 05:53:44 10° NNE 05:58:45 86° ESE 06:04:00 10° SSW
USA 215 3.5 05:55:26 10° ESE 06:01:55 69° NE 06:07:53 13° NW
Cosmos 1515 Rocket 4.4 06:00:09 19° NW 06:02:18 29° W 06:06:02 10° SSW
SL-4 R/B 1.5 05:59:55 14° WSW 06:02:49 83° NNW 06:06:33 10° NE
Nadezhda 4 Rocket 4.2 05:57:28 10° SSW 06:03:24 48° WNW 06:09:27 10° N
Lacrosse 4 Rocket 3.7 06:01:15 10° N 06:04:45 22° NE 06:08:14 10° E
Cosmos 2227 Rocket 3.4 06:00:55 10° NNW 06:06:15 41° ENE 06:11:34 10° SE
IRAS Rocket 4.2 06:01:50 10° SSE 06:07:19 76° WSW 06:12:50 10° NNW
Cosmos 1939 Rocket 3.0 06:05:13 10° NNE 06:09:07 72° ESE 06:12:57 10° S
Cosmos 2228 Rocket 3.1 06:07:27 10° NNW 06:11:56 67° W 06:16:27 10° S
Okean 1 3.3 06:09:14 10° N 06:13:12 85° E 06:17:09 10° S
FengYun 1-2 T 4.4 06:11:25 10° NNE 06:16:56 80° ESE 06:22:25 10° SSW
Cosmos 1602 3.9 06:13:54 10° SSW 06:17:34 45° WNW 06:21:15 10° N
Sich 1 2.9 06:13:54 10° SSW 06:18:09 68° W 06:22:25 10° N
Cosmos 1428 Rocket 4.4 06:12:14 10° SSW 06:18:20 72° W 06:24:27 10° N
Meteor PRIRODA 3.7 06:15:17 10° N 06:18:49 49° WNW 06:22:19 10° SSW
Cosmos 1500 Rocket 4.3 06:15:40 10° SW 06:19:37 31° WNW 06:23:37 10° NNW
DMSP B5D2-2 4.2 06:15:01 10° S 06:20:07 57° W 06:25:15 10° NNW
GENESIS II 4.2 06:17:26 12° NW 06:21:05 72° WSW 06:25:01 10° SSE
Meteor 1-18 Rocket 4.4 06:15:56 10° N 06:21:47 80° E 06:27:28 10° SSE
Cosmos 990 Rocket 4.0 06:16:49 10° SSW 06:22:05 88° WNW 06:27:21 10° NNE
NOAA 11 4.4 06:17:38 10° N 06:22:53 47° WNW 06:28:07 10° SW
COSMOS 2487 3.5 06:20:59 15° NW 06:23:01 25° WSW 06:25:49 10° SSW
BREEZE M DEB (TANK) 2.9 06:21:00 14° NW 06:23:07 33° NNE 06:25:02 10° E
Meteor 1-20 Rocket 4.4 06:18:33 10° SSW 06:23:59 51° WNW 06:29:34 10° N
Meteor 2-21 4.4 06:17:50 10° SSW 06:24:01 77° W 06:30:12 10° N
Cosmos 1092 Rocket 4.1 06:18:13 10° SSW 06:24:21 57° WNW 06:30:36 10° N
Cosmos 1500 3.2 06:21:15 10° SSW 06:25:00 59° W 06:28:46 10° N
ATLAS 5 CENTAUR R/B 2.8 06:22:59 13° WNW 06:25:09 19° NW 06:28:22 10° NNE
H-2A R/B 2.1 06:26:15 10° S 06:30:30 65° WSW 06:34:55 10° NNW
Cosmos 1805 Rocket 4.0 06:28:13 10° SW 06:32:16 37° WNW 06:36:21 10° N
Cosmos 1697 Rocket 3.7 06:28:15 10° S 06:33:41 52° ESE 06:39:07 10° NNE
Cosmos 1707 Rocket 3.6 06:30:04 10° N 06:34:31 79° W 06:38:59 10° S
Cosmos 44 3.8 06:34:15 10° SSW 06:39:37 75° ESE 06:44:50 10° NE
Meteor 1-19 Rocket 4.3 06:34:27 10° NNW 06:39:50 53° W 06:45:04 10° S
Cosmos 1980 Rocket 4.4 06:35:26 10° SSE 06:40:19 30° ESE 06:45:14 10° NE
PSLV R/B 3.9 06:41:26 10° NNE 06:45:27 90° SSE 06:49:30 10° SSW
Cosmos 2219 3.4 06:39:55 10° NNW 06:45:37 81° ENE 06:51:19 10° SSE
Cosmos 1862 Rocket 3.6 06:43:45 10° N 06:48:07 84° E 06:52:28 10° S
Cosmos 724 4.3 06:42:55 10° NNW 06:48:49 90° W 06:54:35 10° SSE
FALCON 9 DEB 3.0 06:46:10 10° NW 06:48:59 57° NNE 06:51:47 10° ESE
NOSS 8 (E) 4.2 06:46:11 10° SW 06:49:49 83° NW 06:52:50 10° NE
